ファン・ハウテン-レモン彗星

271P/van Houten-Lemmon (2013)

English version
Home page
Updated on March 15, 2015

---------------------------------------------------------------------

・ プロフィール

符号 271P/2012 TB36
再発見日 2012年10月5日
再発見光度 19.9等
再発見者 S. M. Larson (Mount Lemmon Survey)

・ 写真集

・ 軌道要素

Epoch 2013 July 7.0 TT = JDT 2456480.5
T 2013 July 5.81269 TT                                  MPCW
q   4.2493463            (2000.0)            P               Q
n   0.05342791     Peri.   35.13529     +0.71124323     -0.70266506
a   6.9816372      Node     9.58435     +0.61453202     +0.60781185
e   0.3913539      Incl.    6.85457     +0.34129674     +0.36990075
P  18.4
From 93 observations 1960 Sept. 24-2015 Jan. 20, mean residual 1".0.

・ 光度変化

        m1 = 11.0 + 5 logΔ + 10.0 log r

---------------------------------------------------------------------

軌道要素はM.P.E.C. 2015-B177に掲載されたものです。
光度グラフはComet for Windowsで作成したものです。

---------------------------------------------------------------------

Copyright(C) Seiichi Yoshida (comet@aerith.net). All rights reserved.